Location: Brompton
(51.4000°N, 0.5333°E)
Time: 18:41:51
(UTC+00:00)

Resurs 01 Rocket - Pass Details

Date: 11 May 2021
Orbit: 633 x 645 km, 97.9° (Epoch: 15 June)

Event Time Altitude Azimuth Distance (km) Brightness Sun altitude
Exits shadow 21:39:48 - 209° (SSW) 2,832 4.7 -14.5°
Reaches altitude 10° 21:42:18 10° 226° (SW) 2,039 4.1 -14.7°
Maximum altitude 21:45:23 18° 270° (W) 1,568 4.0 -15.0°
Drops below altitude 10° 21:48:29 10° 314° (NW) 2,047 5.5 -15.2°
Sets 21:51:20 0° 334° (NNW) 2,960 6.9 -15.5°
